Flag for Poland Weather past 2 weeks in Tychy, Poland

Now
55 °F

Clear.


Feels Like: 54 °F
Forecast: 58 / 75 °F
Wind: 7 mph from Northeast

Location: Katowice Airport

Current Time: Sep 3, 2014 at 2:45:06 AM

Latest Report: Sep 3, 2014 at 2:00 AM


Visibility: 10 mi

Pressure: 30.15 "Hg

Humidity: 94%

Dew point: 54 °F

Location of TychyLocation

Historic Weather in Tychy — Graph

°F

Tychy temperature yesterday

Maximum temperature yesterday: 64 °F (at 3:30 PM)
Minimum temperature yesterday: 57 °F (at 10:00 PM)
Average temperature yesterday: 60 °F

Past Weeks' High & Low Weather Summary

 TemperatureHumidityPressure
High73 °F (Aug 30, 4:30 PM)100% (Aug 20, 12:30 AM)30.15 "Hg (Aug 20, 12:30 AM)
Low43 °F (Aug 22, 4:30 AM)38% (Aug 29, 4:30 PM)29.74 "Hg (Aug 26, 12:00 PM)
Average59 °F80%29.98 "Hg
* Reported Aug 19 2:00 AM — Sep 3 2:00 AM, Tychy, Weather by CustomWeather, © 2014

Note: Actual official high and low records may vary slightly from our data, if they occured in-between our weather recording intervals... More about our weather records

Advertising

Tychy weather history for previous 24 hours

 ConditionsComfort  
Time TempWeatherWind HumidityBarometerVisibility
2:00 AM
Sep 3
55 °FClear.7 mph94%30.15 "Hg10 mi
1:30 AM55 °FClear.7 mph94%30.12 "Hg10 mi
1:00 AM55 °FClear.6 mph100%30.12 "Hg10 mi
12:30 AM57 °FClear.7 mph94%30.12 "Hg10 mi
12:00 AM57 °FPassing clouds.8 mph94%30.12 "Hg5 mi
11:30 PM
Sep 2
57 °FPassing clouds.6 mph94%30.12 "Hg5 mi
11:00 PM57 °FClear.7 mph94%30.12 "Hg4 mi
10:30 PM57 °FClear.7 mph94%30.12 "Hg4 mi
10:00 PM57 °FClear.6 mph94%30.12 "Hg4 mi
9:30 PM59 °FClear.12 mph88%30.12 "Hg10 mi
9:00 PM59 °FPassing clouds.10 mph88%30.09 "HgN/A
8:30 PM59 °FPassing clouds.10 mph88%30.12 "HgN/A
8:00 PM59 °FScattered clouds.12 mph88%30.09 "HgN/A
7:30 PM59 °FSunny.10 mph88%30.09 "Hg10 mi
7:00 PM59 °FPassing clouds.12 mph88%30.07 "HgN/A
6:30 PM61 °FPassing clouds.12 mph88%30.07 "HgN/A
6:00 PM63 °FSunny.12 mph83%30.07 "Hg10 mi
5:30 PM63 °FScattered clouds.12 mph83%30.07 "HgN/A
5:00 PM63 °FScattered clouds.12 mph83%30.04 "HgN/A
4:30 PM64 °FScattered clouds.12 mph83%30.04 "HgN/A
4:00 PM64 °FScattered clouds.12 mph83%30.04 "HgN/A
3:30 PM64 °FBroken clouds.10 mph78%30.04 "HgN/A
3:00 PM63 °FBroken clouds.10 mph83%30.04 "HgN/A
2:30 PM63 °FBroken clouds.10 mph83%30.04 "HgN/A
2:00 PM63 °FBroken clouds.12 mph83%30.04 "HgN/A
1:30 PM61 °FBroken clouds.12 mph88%30.04 "HgN/A
1:00 PM63 °FBroken clouds.9 mph83%30.04 "HgN/A
12:30 PM61 °FBroken clouds.10 mph88%30.04 "HgN/A
12:00 PM61 °FBroken clouds.8 mph88%30.04 "HgN/A
11:30 AM61 °FBroken clouds.10 mph88%30.01 "HgN/A
11:00 AM61 °FBroken clouds.10 mph88%30.01 "HgN/A
10:30 AM61 °FBroken clouds.12 mph94%30.01 "HgN/A
10:00 AM61 °FBroken clouds.12 mph94%30.01 "HgN/A
9:30 AM59 °FDrizzle. Fog.10 mph100%30.01 "Hg2 mi
9:00 AM59 °FDrizzle. Fog.10 mph100%29.98 "Hg1 mi
8:30 AM59 °FDrizzle. Fog.9 mph100%29.98 "Hg1 mi
8:00 AM59 °FDrizzle. Fog.8 mph100%29.98 "Hg1 mi
7:30 AM59 °FDrizzle. Fog.10 mph94%29.98 "Hg1 mi
7:00 AM59 °FDrizzle. Fog.8 mph94%29.98 "Hg1 mi
6:30 AM59 °FDrizzle. Fog.6 mph94%29.98 "Hg1 mi
6:00 AM59 °FDrizzle. Fog.7 mph94%29.98 "Hg1 mi
5:30 AM59 °FDrizzle. Fog.6 mph94%29.95 "Hg1 mi
5:00 AM59 °FDrizzle. Fog.8 mph94%29.95 "Hg1 mi
4:30 AM59 °FDrizzle. Fog.7 mph94%29.95 "Hg1 mi
4:00 AM59 °FDrizzle. Fog.8 mph94%29.95 "Hg2 mi
3:30 AM59 °FFog.6 mph94%29.95 "Hg2 mi
3:00 AM59 °FFog.7 mph94%29.95 "Hg2 mi
2:30 AM59 °FLight rain. Fog.6 mph94%29.95 "Hg2 mi
2:00 AM59 °FLight rain. Fog.7 mph94%29.95 "Hg2 mi
Weather by CustomWeather, © 2014

See weather overviewHow to use our weather pages